When you browse on this site, cookies collect data to enhance your experience and personalize the content and advertising you see.
Visit our Privacy Policy to learn more. By continuing to use the site, you agree to this use of cookies and data.

Tiempo cada hora Cayenne

Hoy, 4 Agosto, Martes

Tiempo Temperatura Precipitaciones Viento Presión Humedad
00:00 +25°C° 0 mm 2 mps 760 mmHg 92%
01:00 +25°C° 0 mm 2 mps 760 mmHg 93%
02:00 +25°C° 0 mm 2 mps 760 mmHg 94%
03:00 +25°C° 0 mm 2 mps 759 mmHg 94%
04:00 +24°C° 0.1 mm 2 mps 759 mmHg 95%
05:00 +24°C° 0.1 mm 2 mps 759 mmHg 96%
06:00 +24°C° 0.1 mm 2 mps 759 mmHg 97%
07:00 +26°C° 0 mm 2 mps 760 mmHg 90%
08:00 +27°C° 0 mm 2 mps 760 mmHg 84%
09:00 +29°C° 0 mm 2 mps 760 mmHg 77%
10:00 +30°C° 0.2 mm 2 mps 760 mmHg 73%
11:00 +31°C° 0.2 mm 3 mps 760 mmHg 69%
12:00 +33°C° 0.2 mm 3 mps 760 mmHg 64%
13:00 +33°C° 0.3 mm 3 mps 759 mmHg 69%
14:00 +31°C° 0.3 mm 3 mps 758 mmHg 73%
15:00 +32°C° 0.3 mm 4 mps 758 mmHg 77%
16:00 +30°C° 0.5 mm 4 mps 758 mmHg 82%
17:00 +29°C° 0.5 mm 4 mps 757 mmHg 88%
18:00 +28°C° 0.5 mm 4 mps 757 mmHg 93%
19:00 +27°C° 0.2 mm 4 mps 758 mmHg 94%
20:00 +27°C° 0.2 mm 4 mps 759 mmHg 95%
21:00 +26°C° 0.2 mm 3 mps 759 mmHg 96%
22:00 +26°C° 0 mm 3 mps 760 mmHg 96%
23:00 +26°C° 0 mm 3 mps 760 mmHg 97%

Mañana, 5 Agosto, Miércoles

Tiempo Temperatura Precipitaciones Viento Presión Humedad
00:00 +26°C° 0 mm 3 mps 760 mmHg 97%
01:00 +26°C° 0.1 mm 3 mps 760 mmHg 97%
02:00 +25°C° 0.1 mm 3 mps 759 mmHg 97%
03:00 +25°C° 0.1 mm 3 mps 759 mmHg 97%
04:00 +25°C° 0 mm 3 mps 759 mmHg 97%
05:00 +25°C° 0 mm 3 mps 758 mmHg 97%
06:00 +25°C° 0 mm 3 mps 758 mmHg 97%
07:00 +26°C° 0 mm 3 mps 759 mmHg 94%
08:00 +27°C° 0 mm 3 mps 759 mmHg 90%
09:00 +29°C° 0 mm 3 mps 759 mmHg 86%
10:00 +30°C° 0 mm 3 mps 759 mmHg 77%
11:00 +33°C° 0 mm 3 mps 759 mmHg 67%
12:00 +35°C° 0 mm 3 mps 759 mmHg 58%
13:00 +34°C° 0.2 mm 4 mps 759 mmHg 63%
14:00 +33°C° 0.2 mm 4 mps 758 mmHg 69%
15:00 +33°C° 0.2 mm 4 mps 757 mmHg 74%
16:00 +32°C° 0.1 mm 4 mps 757 mmHg 76%
17:00 +30°C° 0.1 mm 4 mps 757 mmHg 78%
18:00 +29°C° 0.1 mm 4 mps 757 mmHg 80%
19:00 +28°C° 0 mm 3 mps 757 mmHg 83%
20:00 +27°C° 0 mm 3 mps 758 mmHg 86%
21:00 +27°C° 0 mm 3 mps 758 mmHg 89%
22:00 +26°C° 0.1 mm 3 mps 759 mmHg 90%
23:00 +26°C° 0.1 mm 3 mps 759 mmHg 91%

Pasado mañana, 6 Agosto, Jueves

Tiempo Temperatura Precipitaciones Viento Presión Humedad
00:00 +26°C° 0.1 mm 3 mps 759 mmHg 92%
01:00 +26°C° 0.4 mm 3 mps 759 mmHg 93%
02:00 +25°C° 0.4 mm 3 mps 758 mmHg 93%
03:00 +25°C° 0.4 mm 3 mps 758 mmHg 94%
04:00 +25°C° 0.1 mm 3 mps 758 mmHg 95%
05:00 +25°C° 0.1 mm 3 mps 758 mmHg 95%
06:00 +24°C° 0.1 mm 2 mps 758 mmHg 96%
07:00 +26°C° 0 mm 2 mps 758 mmHg 91%
08:00 +27°C° 0 mm 3 mps 758 mmHg 87%
09:00 +28°C° 0 mm 3 mps 759 mmHg 82%
10:00 +29°C° 0.2 mm 3 mps 759 mmHg 78%
11:00 +30°C° 0.2 mm 3 mps 759 mmHg 74%
12:00 +31°C° 0.2 mm 3 mps 759 mmHg 71%
13:00 +31°C° 1.2 mm 3 mps 758 mmHg 76%
14:00 +30°C° 1.2 mm 3 mps 758 mmHg 82%
15:00 +30°C° 1.2 mm 4 mps 757 mmHg 87%
16:00 +29°C° 0.4 mm 4 mps 757 mmHg 87%
17:00 +29°C° 0.4 mm 3 mps 757 mmHg 87%
18:00 +28°C° 0.4 mm 3 mps 757 mmHg 88%
19:00 +28°C° 0.1 mm 3 mps 757 mmHg 89%
20:00 +27°C° 0.1 mm 3 mps 758 mmHg 90%
21:00 +26°C° 0.1 mm 3 mps 758 mmHg 92%
22:00 +26°C° 0.1 mm 3 mps 759 mmHg 92%
23:00 +26°C° 0.1 mm 3 mps 759 mmHg 92%

7 Agosto, Viernes

Tiempo Temperatura Precipitaciones Viento Presión Humedad
00:00 +26°C° 0.1 mm 3 mps 759 mmHg 92%
01:00 +25°C° 0.1 mm 3 mps 759 mmHg 92%
02:00 +25°C° 0.1 mm 3 mps 758 mmHg 92%
03:00 +25°C° 0.1 mm 3 mps 758 mmHg 93%
04:00 +25°C° 0.1 mm 3 mps 758 mmHg 93%
05:00 +25°C° 0.1 mm 3 mps 758 mmHg 94%
06:00 +25°C° 0.1 mm 2 mps 758 mmHg 94%
07:00 +26°C° 0 mm 3 mps 759 mmHg 89%
08:00 +27°C° 0 mm 3 mps 759 mmHg 83%
09:00 +29°C° 0 mm 3 mps 760 mmHg 78%
10:00 +30°C° 0 mm 3 mps 759 mmHg 71%
11:00 +31°C° 0 mm 3 mps 759 mmHg 65%
12:00 +33°C° 0 mm 3 mps 759 mmHg 58%
13:00 +34°C° 0 mm 3 mps 758 mmHg 57%
14:00 +34°C° 0 mm 3 mps 758 mmHg 55%
15:00 +35°C° 0 mm 4 mps 757 mmHg 54%
16:00 +33°C° 0.1 mm 4 mps 757 mmHg 62%
17:00 +32°C° 0.1 mm 4 mps 757 mmHg 69%
18:00 +29°C° 0.1 mm 4 mps 757 mmHg 77%
19:00 +28°C° 0.1 mm 4 mps 758 mmHg 79%
20:00 +28°C° 0.1 mm 3 mps 758 mmHg 81%
21:00 +28°C° 0.1 mm 3 mps 759 mmHg 83%
22:00 +27°C° 0 mm 3 mps 759 mmHg 85%
23:00 +27°C° 0 mm 3 mps 759 mmHg 88%

8 Agosto, Sábado

Tiempo Temperatura Precipitaciones Viento Presión Humedad
00:00 +26°C° 0 mm 3 mps 759 mmHg 90%
01:00 +26°C° 0.1 mm 3 mps 759 mmHg 91%
02:00 +25°C° 0.1 mm 3 mps 758 mmHg 93%
03:00 +25°C° 0.1 mm 3 mps 758 mmHg 94%
04:00 +25°C° 0.2 mm 3 mps 758 mmHg 94%
05:00 +25°C° 0.2 mm 3 mps 758 mmHg 94%
06:00 +24°C° 0.2 mm 3 mps 758 mmHg 95%
07:00 +26°C° 0 mm 3 mps 759 mmHg 88%
08:00 +28°C° 0 mm 3 mps 759 mmHg 81%
09:00 +30°C° 0 mm 3 mps 760 mmHg 74%
10:00 +30°C° 0.7 mm 3 mps 760 mmHg 74%
11:00 +31°C° 0.7 mm 3 mps 760 mmHg 74%
12:00 +31°C° 0.7 mm 3 mps 759 mmHg 74%
13:00 +31°C° 0.8 mm 3 mps 759 mmHg 76%
14:00 +31°C° 0.8 mm 3 mps 758 mmHg 77%
15:00 +32°C° 0.8 mm 4 mps 757 mmHg 79%
16:00 +30°C° 0.4 mm 4 mps 758 mmHg 81%
17:00 +29°C° 0.4 mm 4 mps 758 mmHg 84%
18:00 +28°C° 0.4 mm 4 mps 758 mmHg 87%
19:00 +28°C° 0 mm 4 mps 758 mmHg 89%
20:00 +27°C° 0 mm 3 mps 759 mmHg 90%
21:00 +26°C° 0 mm 3 mps 759 mmHg 92%
22:00 +26°C° 0.1 mm 3 mps 759 mmHg 93%
23:00 +26°C° 0.1 mm 3 mps 759 mmHg 94%

9 Agosto, Domingo

Tiempo Temperatura Precipitaciones Viento Presión Humedad
00:00 +26°C° 0.1 mm 3 mps 759 mmHg 94%
01:00 +25°C° 0 mm 3 mps 759 mmHg 95%
02:00 +25°C° 0 mm 3 mps 758 mmHg 95%
03:00 +25°C° 0 mm 3 mps 758 mmHg 96%
04:00 +25°C° 0 mm 3 mps 758 mmHg 96%
05:00 +25°C° 0 mm 3 mps 758 mmHg 96%
06:00 +25°C° 0 mm 3 mps 758 mmHg 96%
07:00 +26°C° 0 mm 3 mps 758 mmHg 91%
08:00 +27°C° 0 mm 3 mps 759 mmHg 87%
09:00 +29°C° 0 mm 3 mps 759 mmHg 83%
10:00 +30°C° 0 mm 3 mps 759 mmHg 75%
11:00 +33°C° 0 mm 3 mps 759 mmHg 67%
12:00 +34°C° 0 mm 3 mps 759 mmHg 60%
13:00 +33°C° 0.5 mm 3 mps 758 mmHg 65%
14:00 +33°C° 0.5 mm 3 mps 757 mmHg 71%
15:00 +31°C° 0.5 mm 3 mps 757 mmHg 76%
16:00 +30°C° 0.2 mm 3 mps 757 mmHg 80%
17:00 +29°C° 0.2 mm 3 mps 757 mmHg 83%
18:00 +28°C° 0.2 mm 3 mps 756 mmHg 86%
19:00 +27°C° 0 mm 3 mps 757 mmHg 87%
20:00 +27°C° 0 mm 3 mps 758 mmHg 88%
21:00 +27°C° 0 mm 3 mps 758 mmHg 89%
22:00 +27°C° 0 mm 3 mps 758 mmHg 90%
23:00 +26°C° 0 mm 3 mps 758 mmHg 91%
Mostrar más